Location: Rio Tanui
(39.9167°N, 8.5167°E)
Time: 02:16:06
(UTC+00:00)

Okean 1-7 Rocket - Pass Details

Date: 08 February 2023
Orbit: 614 x 648 km, 82.5° (Epoch: 01 April)

Event Time Altitude Azimuth Distance (km) Brightness Sun altitude
Rises 17:54:28 0° 176° (S) 2,885 7.1 -12.2°
Reaches altitude 10° 17:56:42 10° 172° (S) 1,989 6.2 -12.6°
Maximum altitude 18:01:01 56° 94° (E) 746 3.6 -13.4°
Drops below altitude 10° 18:05:25 10° 16° (NNE) 2,025 6.0 -14.3°
Sets 18:07:42 0° 12° (NNE) 2,944 6.8 -14.7°
